User: anonymous   Login
Location: Dompnac
(44.5644°N, 4.1026°E)
Time: 22:30:13
(UTC+00:00)
Language:

In-Cosmos 22 - Orbit

View from above orbital plane
View from above orbital plane
View from above satellite
View from above satellite

Ground track
Ground track

The orbit data is extracted from the following two-line orbital elements,

1 12645U 81075A   20327.74672050  .00000002  00000-0 -47259-5 0  9999
2 12645  81.2192  59.7473 0062702 278.5150  80.8922 14.18379235 32189
Epoch (UTC): 22 November 2020 17:55:16
Eccentricity: 0.0062702
inclination: 81.2192°
perigee height: 785 km
apogee height: 876 km
right ascension of ascending node: 59.7473°
argument of perigee: 278.5150°
revolutions per day: 14.18379235
mean anomaly at epoch: 80.8922°
orbit number at epoch: 3218

The dashed part of the orbit path shows where the satellite is in the earth's shadow,  

DLR